Location: Kott?ru
(16.6209°N, 80.6208°E)
Time: 00:41:45
(UTC+00:00)

CBERS 1 LM4 rocket - Pass Details

Date: 18 September 2020
Orbit: 701 x 842 km, 98.8° (Epoch: 26 October)

Event Time Altitude Azimuth Distance (km) Brightness Sun altitude
Rises 22:30:58 0° 11° (N) 3,379 8.1 -28.3°
Reaches altitude 10° 22:33:21 10° 10° (N) 2,434 7.3 -27.7°
Maximum altitude 22:38:45 83° 283° (WNW) 823 4.4 -26.4°
Enters shadow 22:39:04 78° 228° (SW) 833 4.4 -26.3°
